SCP
0 -0 -0 -0 -0 -0 0 0 0 0 0 0 0 0 0 0 0 0 0 0 -0 -0 0 -0 -0 -0 -0 -0 -0 -0 -0 -0 -0 -0 -0 -0 -0 -0 -0 -0 -0 -0 -0 -0 -0 -0 -0 -0 -0
0 -0 -0 -0 0 0 0 0 0 0 0 0 0 0 0 0 0 0 0 0 0 -0 -0 -0 -0 -0 -0 -0 -0 -0 -0 -0 -0 -0 -0 -0 -0 -0 -0 -0 -0 -0 -0 -0 -0 -0 -0 -0 -0
-0 -0 0 -0 0 0 0 0 0 0 0 0 0 0 0 0 0 0 -0 -0 -0 -0 -0 -0 -0 -0 -0 -0 -0 -0 -0 -0 -0 -0 -0 -0 -0 -0 -0 -0 -0 -0 -0 -0 -0 -0 -0 -0 -0
-0 -0 -0 0 0 0 0 0 0 0 0 0 0 0 0 0 -0 -0 -0 -0 -0 -0 -0 -0 -0 -0 -0 -0 -0 -0 -0 -0 -0 -0 -0 -0 -0 -0 -0 -0 -0 -0 -0 -0 -0 -0 -0 -0 -0
-0 0 0 -0 -0 0 0 0 0 0 0 0 0 0 0 -0 -0 -0 -0 -0 -0 -0 -0 -0 -0 -0 -0 -0 -0 -0 -0 -0 -0 -0 -0 -0 -0 -0 -0 -0 -0 -0 -0 -0 -0 -0 -0 -0 -0
0 0 0 0 -0 -0 0 -0 -0 0 0 0 0 -0 -0 -0 -0 -0 -0 -0 -0 -0 -0 -0 -0 -0 -0 -0 -0 -0 -0 -0 -0 -0 -0 -0 -0 -0 -0 -0 -0 -0 -0 -0 -0 -0 -0 -0 -0
0 0 0 0 0 0 0 -0 0 -0 0 0 -0 -0 0 0 0 0 0 0 -0 0 -0 -0 -0 -0 -0 -0 -0 -0 -0 -0 -0 -0 -0 -0 -0 -0 -0 -0 -0 -0 -0 -0 -0 -0 -0 -0 -0
0 0 0 0 0 0 0 0 0 0 0 0 0 0 0 0 0 0 0 0 0 0 0 0 0 0 -0 -0 -0 -0 -0 -0 -0 -0 -0 -0 0 0 0 0 0 -0 -0 -0 -0 -0 -0 -0 -0
0 0 0 0 0 0 0 0 0 0 0 0 0 0 0 0 0 0 0 0 0 0 0 0 0 0 0 0 0 -0 -0 -0 -0 -0 -0 -0 0 0 0 0 0 -0 -0 -0 -0 -0 -0 -0 -0
0 0 0 0 0 0 0 0 0 0 0 0 0 0 0 0 0 0 0 0 0 0 0 0 0 0 0 0 0 0 0 0 0 0 0 0 0 0 0 0 -0 -0 -0 -0 -0 -0 -0 0 0
0 0 0 0 0 0 0 0 0 0 0 0 0 0 0 0 0 0 0 0 0 0 0 0 0 0 0 0 0 0 0 0 0 0 0 0 0 0 0 0 0 0 0 0 0 0 0 0 0
0 0 0 0 0 0 0 0 0 0 0 0 0 0 0 0 0 0 0 0 0 0 0 0 0 0 0 0 0 0 0 0 0 0 0 0 0 0 0 0 0 0 0 0 0 0 0 0 0
0 0 0 0 0 0 0 0 0 0 0 0 0 0 0 0 0 0 0 0 0 0 0 0 0 0 0 0 0 0 0 0 0 0 0 0 0 0 0 0 0 0 0 0 0 0 0 0 0
0 0 0 0 0 0 0 0 0 0 0 0 0 0 0 0 0 0 0 0 0 0 0 0 0 0 0 0 0 0 0 0 0 0 0 0 0 0 0 0 0 0 0 0 0 0 0 0 0
0 0 0 0 0 0 0 0 0 0 0 0 0 0 0 0 0 0 0 0 0 0 0 0 0 0 0 0 0 0 0 0 0 0 0 0 0 0 0 0 0 0 0 0 0 0 0 0 0
0 0 0 0 0 0 0 0 0 0 0 0 0 0 0 0 0 0 0 0 0 0 0 0 0 0 0 0 0 0 0 0 0 0 0 0 0 0 0 0 0 0 0 0 0 0 0 0 0
0 0 0 0 0 0 0 0 0 0 0 0 0 0 0 0 0 0 0 0 0 0 0 0 0 0 0 0 0 0 0 0 0 0 0 0 0 0 0 0 0 0 0 0 0 0 0 0 0
0 0 0 0 0 0 0 0 0 0 0 0 0 0 0 0 0 0 0 0 0 0 0 0 0 0 0 0 0 0 0 0 0 0 0 0 0 0 0 0 0 0 0 0 0 0 0 0 0
0 0 0 0 0 0 0 0 0 0 0 0 0 0 0 0 0 0 0 0 0 0 0 0 0 0 0 0 0 0 0 0 0 0 0 0 0 0 0 0 0 0 0 0 0 0 0 0 0
0 0 0 0 0 0 0 0 0 0 0 0 0 0 0 0 0 0 0 0 0 0 0 0 0 0 0 0 0 0 0 0 0 0 0 0 0 0 0 0 0 0 0 0 0 0 0 0 0
0 0 0 0 0 0 0 0 0 0 0 0 0 0 0 0 0 0 0 0 0 0 0 0 0 0 0 0 0 0 0 0 0 0 0 0 0 0 0 0 0 0 0 0 0 0 0 0 0
0 0 0 0 0 0 0 0 0 0 0 0 0 0 0 0 0 0 0 0 0 0 0 0 0 0 0 0 0 0 0 0 0 0 0 0 0 0 0 0 0 0 0 0 0 0 0 0 0
0 0 0 0 0 0 0 0 0 0 0 0 0 0 0 0 0 0 0 0 0 0 0 0 0 0 0 0 0 0 0 0 0 0 0 0 0 0 0 0 0 0 0 0 0 0 0 0 0
0 0 0 0 0 0 0 0 0 0 0 0 -0 -0 0 0 0 0 0 0 0 0 0 0 0 0 0 0 0 0 0 0 0 0 0 0 0 0 0 0 0 0 0 0 0 0 0 0 0
0 0 0 0 0 0 0 0 0 0 0 0 0 -0 0 0 0 0 0 0 0 0 0 0 0 0 0 0 0 0 0 0 0 0 0 0 0 0 0 0 0 0 0 0 0 0 0 0 0
0 0 0 0 0 0 0 0 0 0 0 0 0 0 0 0 0 0 0 0 0 0 0 0 0 0 0 0 0 0 0 0 0 0 0 0 0 0 0 0 0 0 0 0 0 0 0 0 0
0 0 0 0 0 0 0 0 0 0 0 -0 0 0 0 0 0 0 0 0 0 0 0 0 0 0 0 0 0 0 0 0 0 0 0 0 0 0 0 0 0 0 0 0 0 0 0 0 0
0 0 0 0 0 0 0 0 0 0 0 -0 -0 0 0 0 0 0 0 0 0 0 0 0 0 0 0 0 0 0 0 0 0 0 0 0 0 0 0 0 0 0 0 0 0 0 0 0 0
0 0 0 0 0 0 0 0 0 0 0 0 0 0 0 0 0 -0 -0 0 0 0 0 0 0 0 0 0 0 0 0 0 0 0 0 0 0 0 0 0 0 0 0 0 0 0 0 0 0
0 0 0 0 0 0 0 0 0 0 0 0 0 0 0 0 -0 -0 -0 0 0 0 0 0 0 0 0 0 0 0 0 0 0 0 0 0 0 0 0 0 0 0 0 0 0 0 0 0 0
Wind_Speed_500mb
10 8 6 1 8 11 2 6 1 7 2 3 12 9 12 7 7 6 38 28 28 30 32 30 26 25 23 21 21 19 15 15 18 23 27 30 32 32 32 28 26 25 27 24 23 22 20 21 21
9 7 4 5 9 7 8 6 7 8 21 35 24 15 7 2 8 20 28 25 27 31 32 30 27 24 22 19 17 16 13 12 15 19 24 27 30 31 33 31 28 25 26 22 20 20 19 19 19
9 8 1 9 7 8 8 8 9 15 28 5 10 9 8 11 17 24 19 23 30 34 32 30 27 25 22 19 17 14 12 10 10 15 19 23 26 28 29 29 29 27 27 23 20 17 17 17 16
9 5 10 9 5 5 5 9 13 21 5 6 18 11 8 13 17 19 21 27 32 34 31 29 27 24 21 17 14 12 10 9 8 13 15 20 23 24 26 27 25 26 25 24 20 18 17 15 16
10 5 8 7 5 5 6 12 30 10 4 10 11 10 10 19 17 20 27 27 34 32 31 29 27 26 23 19 16 14 12 11 10 10 12 15 18 23 26 25 23 23 25 22 22 22 19 17 17
6 6 9 3 6 6 3 20 17 9 8 13 8 19 13 20 23 25 32 32 33 27 29 29 27 25 22 21 18 14 13 13 11 11 11 10 13 19 23 26 25 23 20 21 22 21 21 20 19
12 8 9 8 6 3 8 25 14 18 14 12 13 13 9 30 29 29 32 33 33 31 33 32 28 25 23 21 19 16 14 13 12 11 9 7 10 17 21 28 27 24 23 21 19 19 20 19 19
10 12 8 7 11 9 10 19 13 22 12 16 21 9 9 39 35 34 34 35 35 33 35 37 31 31 28 23 20 21 19 15 13 11 9 5 7 15 19 23 26 25 23 22 19 17 18 17 17
9 9 6 12 14 9 16 8 11 12 14 23 22 13 12 38 41 39 38 40 42 39 38 38 36 31 28 25 24 22 23 19 16 15 12 7 5 7 8 12 22 23 22 22 21 19 18 17 16
9 8 19 11 10 7 14 11 24 12 13 19 22 29 21 38 46 44 44 44 46 44 41 40 38 41 38 33 28 27 25 22 17 16 13 14 9 7 4 2 11 12 15 17 18 17 17 15 16
6 9 11 8 9 8 13 8 20 16 8 29 41 38 33 44 51 48 47 45 44 46 44 38 46 41 43 41 37 35 33 29 29 27 19 21 20 15 10 9 3 1 6 8 10 12 12 12 14
5 3 7 7 6 5 7 7 11 27 20 15 33 31 41 48 55 55 53 50 49 49 47 46 45 47 45 48 43 41 37 34 36 30 28 29 24 22 19 16 11 7 6 6 6 7 7 7 8
4 4 4 4 4 4 7 13 14 27 38 32 20 32 44 51 54 54 51 50 50 52 50 49 47 50 50 51 52 44 48 45 40 38 38 33 28 29 27 24 18 12 10 11 9 8 3 3 4
2 3 4 6 7 9 7 5 6 14 37 37 34 35 45 52 54 56 58 56 56 51 50 50 51 52 54 53 54 52 46 50 48 47 43 42 39 33 30 26 24 16 15 15 13 10 6 8 8
3 4 9 10 8 7 7 12 21 49 31 31 38 42 49 55 58 63 57 56 53 51 51 52 52 54 56 59 59 58 54 52 51 51 50 46 44 37 36 32 33 20 21 19 18 12 7 11 13
6 9 4 5 10 3 12 17 12 15 45 47 46 46 52 57 62 59 58 58 56 55 54 54 55 55 58 58 57 57 57 52 54 50 50 54 48 41 40 36 33 25 26 22 19 9 9 15 16
11 6 7 15 16 4 8 16 8 6 27 47 50 54 58 61 64 64 62 60 59 57 55 53 51 49 50 51 53 54 54 52 49 51 49 48 46 48 50 43 33 33 29 27 18 17 14 20 24
12 7 8 9 4 5 9 29 21 26 22 40 46 54 62 70 74 67 64 63 61 60 59 58 57 54 51 49 52 52 50 49 51 50 49 54 50 35 55 41 37 35 34 29 26 24 26 26 27
10 9 11 9 7 7 16 20 27 40 38 54 66 64 67 70 65 69 67 67 65 65 67 66 64 59 55 53 57 56 58 57 53 51 40 66 55 43 49 41 47 39 31 29 30 32 32 36 31
6 6 10 10 6 11 15 29 25 34 33 63 76 78 81 79 78 75 72 76 76 72 71 70 67 62 58 53 59 58 61 61 62 59 59 54 51 48 48 47 43 38 37 36 35 33 35 33 30
10 12 10 14 6 8 10 17 15 21 39 63 78 85 84 88 89 88 83 82 81 80 77 74 71 65 60 59 60 61 63 63 64 65 62 59 52 50 48 45 42 41 38 39 37 31 23 24 28
13 17 9 6 4 9 3 15 13 13 20 17 63 73 87 91 91 89 84 84 87 86 81 76 71 65 64 59 57 59 71 73 74 66 66 58 49 53 50 47 46 47 46 39 34 32 27 23 24
12 11 13 7 7 8 9 3 13 1 14 27 43 76 82 77 75 75 76 75 77 87 84 79 73 67 65 58 57 65 73 74 70 71 68 62 57 56 51 51 54 52 46 41 36 35 32 27 23
12 10 10 8 5 10 18 18 10 12 17 11 31 69 64 54 49 49 51 53 60 72 83 80 75 73 64 58 58 72 72 75 80 75 72 68 61 60 58 59 56 51 47 43 39 33 28 24 21
6 11 5 7 2 18 11 6 24 16 13 17 24 50 35 20 18 22 31 41 51 61 79 84 80 74 65 61 61 71 71 75 74 76 75 72 68 68 68 64 59 54 48 42 35 30 25 20 15
19 16 12 14 8 11 6 15 12 17 34 47 52 57 50 34 31 31 28 32 44 52 71 86 83 76 68 65 66 71 77 83 79 81 77 72 66 72 72 67 60 54 47 41 36 30 25 21 18
12 14 9 6 4 4 11 16 16 16 22 31 41 33 35 26 23 22 25 31 38 48 65 81 80 74 69 68 68 71 70 78 82 82 79 75 71 79 77 70 63 55 48 42 36 30 27 24 18
11 13 6 3 6 9 12 13 16 11 19 21 23 28 36 26 19 18 20 24 30 41 56 70 76 74 68 71 73 75 80 83 81 80 81 80 83 86 81 74 65 58 51 44 37 31 27 22 18
7 9 2 8 10 10 5 17 15 20 19 16 11 10 7 8 11 13 8 15 22 32 49 66 75 72 69 74 74 76 78 79 80 81 85 85 87 87 81 74 67 61 54 45 37 31 27 23 19
5 11 16 9 9 8 5 33 7 10 9 14 9 3 4 14 14 2 5 14 22 31 45 62 71 71 68 74 76 74 77 79 82 85 86 88 90 87 82 75 67 60 51 44 36 30 26 22 18
Wind_Direction_500mb
247 235 214 198 59 66 289 261 211 139 191 194 136 156 162 84 148 196 148 149 154 167 162 161 163 153 148 138 131 129 110 90 74 63 63 67 65 61 65 73 79 80 79 78 80 82 73 72 66
214 194 164 92 89 81 266 252 206 190 135 114 101 100 71 81 121 142 156 154 159 169 169 168 165 160 155 144 137 132 123 99 77 67 70 64 62 62 63 71 76 75 76 76 79 79 77 73 64
175 169 101 90 110 166 195 211 187 139 141 119 114 93 115 135 138 150 164 174 169 171 173 172 171 169 164 155 150 144 140 112 84 77 71 70 69 67 67 68 70 74 75 78 78 83 83 81 73
154 129 62 82 176 233 210 185 162 145 214 146 133 82 129 159 165 164 164 166 163 169 176 175 177 177 173 167 163 156 152 139 114 101 81 79 72 63 58 60 68 71 75 75 81 82 82 86 77
147 89 58 75 287 265 245 178 161 164 150 151 160 176 160 167 175 166 163 165 166 172 181 182 182 181 181 175 176 170 162 151 140 114 95 88 70 61 59 60 64 71 73 79 80 80 83 85 84
99 85 65 180 269 295 217 174 159 185 169 164 152 150 159 174 165 161 164 163 168 179 186 187 187 190 188 186 178 178 168 161 161 148 127 102 76 65 62 61 63 71 81 81 82 89 93 94 91
123 85 173 167 210 305 195 166 176 181 174 203 166 139 190 178 169 166 168 168 172 178 193 193 193 199 200 190 183 185 184 173 169 169 144 109 81 74 66 64 68 71 71 74 79 84 89 92 93
120 93 115 201 193 234 187 169 206 180 186 172 173 198 206 188 179 177 178 182 180 189 192 193 193 201 203 206 200 196 196 189 182 177 173 159 73 73 68 60 68 69 76 79 82 84 86 89 90
115 69 180 203 153 237 171 153 173 190 162 178 199 215 216 192 190 188 187 190 190 191 198 203 201 203 211 208 212 215 212 206 198 188 192 166 96 68 57 72 67 67 74 79 81 83 87 88 90
86 117 207 190 196 218 191 182 169 170 181 213 223 223 219 196 199 199 198 198 199 200 202 205 207 206 209 204 219 222 225 225 221 228 198 227 228 216 187 145 66 73 76 84 88 85 82 85 86
126 179 187 205 218 221 191 202 180 166 223 218 221 219 212 199 203 207 208 212 214 215 219 217 213 212 216 213 210 220 225 223 227 226 234 230 231 219 214 223 207 109 112 106 100 88 81 81 78
101 126 176 183 203 169 183 176 201 212 226 245 237 236 217 206 208 212 213 214 216 222 228 237 215 223 218 220 215 218 224 224 228 236 230 231 230 223 223 218 225 206 196 176 146 125 90 79 78
103 204 221 263 229 229 238 235 229 246 240 249 246 226 221 215 216 217 219 222 226 228 231 234 233 231 231 223 223 222 224 223 227 230 234 239 231 240 224 227 224 202 241 204 193 172 154 125 117
121 188 271 261 241 241 226 269 232 249 239 239 242 234 223 223 223 220 221 225 229 232 234 235 234 233 233 230 227 227 223 227 225 224 236 239 236 235 226 239 218 218 248 211 201 202 188 163 126
85 331 327 241 224 239 220 296 237 246 249 240 236 232 227 227 225 229 233 234 236 238 237 237 235 234 233 233 234 234 228 227 227 229 231 233 238 236 227 228 230 226 244 210 215 212 203 149 134
56 47 8 288 152 255 150 265 268 258 239 243 238 232 231 232 232 233 234 234 236 240 240 240 238 234 232 233 234 232 231 225 225 231 231 231 232 229 238 226 205 237 237 218 211 209 178 166 152
7 226 210 316 199 125 173 267 242 257 225 243 245 242 239 240 239 238 235 237 239 241 240 236 233 231 231 230 229 228 229 226 226 227 228 233 228 226 242 213 238 241 220 213 209 201 188 170 157
197 212 240 234 209 175 226 263 267 259 249 252 256 253 249 247 247 244 243 240 238 238 236 233 233 233 232 230 225 224 216 218 225 228 224 228 223 229 201 217 240 223 208 204 194 192 174 169 160
138 187 214 238 240 195 232 254 266 268 259 262 260 254 252 251 255 247 243 243 241 237 236 235 235 236 235 227 224 217 213 215 221 216 226 206 219 220 210 230 236 219 203 190 189 182 176 162 160
158 212 255 278 238 189 274 262 250 256 244 251 258 257 255 254 252 249 242 239 240 240 238 235 236 236 238 231 229 224 214 214 221 223 219 224 227 208 229 232 220 203 193 191 183 185 174 168 170
213 198 215 226 325 237 312 272 230 258 250 252 253 258 259 256 254 252 245 241 239 238 237 234 235 236 236 233 225 218 215 216 218 217 216 213 218 229 223 211 202 194 188 183 177 179 193 194 190
247 202 186 185 60 254 170 284 221 239 247 236 255 254 255 256 256 256 254 245 242 240 236 234 235 235 235 233 224 220 216 216 213 215 211 208 219 213 203 199 196 190 185 186 182 183 191 194 195
232 130 160 154 171 342 217 227 260 223 256 254 254 257 259 261 263 263 262 258 248 239 235 232 232 232 235 229 221 215 219 215 219 211 209 204 208 204 200 194 189 187 184 186 189 188 187 184 193
142 83 61 59 108 272 200 195 212 194 211 241 251 261 270 273 269 267 266 257 248 238 232 230 229 232 230 226 220 214 216 218 213 206 204 199 200 201 192 187 187 187 189 191 189 186 184 187 186
148 108 302 322 14 243 341 247 258 277 247 222 250 265 274 283 288 275 264 254 245 234 226 224 225 228 225 222 216 215 216 216 217 220 208 202 199 196 190 188 188 191 192 191 189 189 188 186 187
197 164 173 213 212 275 347 244 247 238 261 248 253 261 270 279 292 283 275 258 247 236 225 223 223 225 223 220 216 219 219 219 219 215 208 206 209 202 193 190 191 193 193 192 191 189 188 187 189
198 206 196 67 83 1 229 281 289 269 282 269 247 260 270 276 276 276 270 262 251 239 229 225 223 225 221 220 217 217 218 217 217 215 209 203 210 201 195 193 194 194 194 194 193 192 192 189 188
167 170 80 352 200 257 269 269 228 259 248 259 269 260 263 270 268 274 270 269 258 244 233 225 227 231 223 217 217 219 223 224 223 215 214 210 205 200 197 195 195 196 195 195 193 191 190 190 193
145 204 122 136 159 186 290 264 218 226 231 231 265 270 240 232 227 242 260 271 256 243 232 225 227 232 223 218 218 220 222 221 220 220 217 211 205 200 200 199 198 197 197 195 194 192 194 194 195
318 222 169 152 213 241 169 266 158 239 301 211 233 192 201 154 178 157 305 276 261 247 232 226 228 233 225 220 219 225 225 225 223 219 216 210 206 203 203 201 199 199 198 197 195 197 198 200 204
Wind_Speed_850mb
10 8 6 1 8 11 2 6 1 7 2 3 12 9 12 7 7 6 38 28 28 30 32 30 26 25 23 21 21 19 15 15 18 23 27 30 32 32 32 28 26 25 27 24 23 22 20 21 21
9 7 4 5 9 7 8 6 7 8 21 35 24 15 7 2 8 20 28 25 27 31 32 30 27 24 22 19 17 16 13 12 15 19 24 27 30 31 33 31 28 25 26 22 20 20 19 19 19
9 8 1 9 7 8 8 8 9 15 28 5 10 9 8 11 17 24 19 23 30 34 32 30 27 25 22 19 17 14 12 10 10 15 19 23 26 28 29 29 29 27 27 23 20 17 17 17 16
9 5 10 9 5 5 5 9 13 21 5 6 18 11 8 13 17 19 21 27 32 34 31 29 27 24 21 17 14 12 10 9 8 13 15 20 23 24 26 27 25 26 25 24 20 18 17 15 16
10 5 8 7 5 5 6 12 30 10 4 10 11 10 10 19 17 20 27 27 34 32 31 29 27 26 23 19 16 14 12 11 10 10 12 15 18 23 26 25 23 23 25 22 22 22 19 17 17
6 6 9 3 6 6 3 20 17 9 8 13 8 19 13 20 23 25 32 32 33 27 29 29 27 25 22 21 18 14 13 13 11 11 11 10 13 19 23 26 25 23 20 21 22 21 21 20 19
12 8 9 8 6 3 8 25 14 18 14 12 13 13 9 30 29 29 32 33 33 31 33 32 28 25 23 21 19 16 14 13 12 11 9 7 10 17 21 28 27 24 23 21 19 19 20 19 19
10 12 8 7 11 9 10 19 13 22 12 16 21 9 9 39 35 34 34 35 35 33 35 37 31 31 28 23 20 21 19 15 13 11 9 5 7 15 19 23 26 25 23 22 19 17 18 17 17
9 9 6 12 14 9 16 8 11 12 14 23 22 13 12 38 41 39 38 40 42 39 38 38 36 31 28 25 24 22 23 19 16 15 12 7 5 7 8 12 22 23 22 22 21 19 18 17 16
9 8 19 11 10 7 14 11 24 12 13 19 22 29 21 38 46 44 44 44 46 44 41 40 38 41 38 33 28 27 25 22 17 16 13 14 9 7 4 2 11 12 15 17 18 17 17 15 16
6 9 11 8 9 8 13 8 20 16 8 29 41 38 33 44 51 48 47 45 44 46 44 38 46 41 43 41 37 35 33 29 29 27 19 21 20 15 10 9 3 1 6 8 10 12 12 12 14
5 3 7 7 6 5 7 7 11 27 20 15 33 31 41 48 55 55 53 50 49 49 47 46 45 47 45 48 43 41 37 34 36 30 28 29 24 22 19 16 11 7 6 6 6 7 7 7 8
4 4 4 4 4 4 7 13 14 27 38 32 20 32 44 51 54 54 51 50 50 52 50 49 47 50 50 51 52 44 48 45 40 38 38 33 28 29 27 24 18 12 10 11 9 8 3 3 4
2 3 4 6 7 9 7 5 6 14 37 37 34 35 45 52 54 56 58 56 56 51 50 50 51 52 54 53 54 52 46 50 48 47 43 42 39 33 30 26 24 16 15 15 13 10 6 8 8
3 4 9 10 8 7 7 12 21 49 31 31 38 42 49 55 58 63 57 56 53 51 51 52 52 54 56 59 59 58 54 52 51 51 50 46 44 37 36 32 33 20 21 19 18 12 7 11 13
6 9 4 5 10 3 12 17 12 15 45 47 46 46 52 57 62 59 58 58 56 55 54 54 55 55 58 58 57 57 57 52 54 50 50 54 48 41 40 36 33 25 26 22 19 9 9 15 16
11 6 7 15 16 4 8 16 8 6 27 47 50 54 58 61 64 64 62 60 59 57 55 53 51 49 50 51 53 54 54 52 49 51 49 48 46 48 50 43 33 33 29 27 18 17 14 20 24
12 7 8 9 4 5 9 29 21 26 22 40 46 54 62 70 74 67 64 63 61 60 59 58 57 54 51 49 52 52 50 49 51 50 49 54 50 35 55 41 37 35 34 29 26 24 26 26 27
10 9 11 9 7 7 16 20 27 40 38 54 66 64 67 70 65 69 67 67 65 65 67 66 64 59 55 53 57 56 58 57 53 51 40 66 55 43 49 41 47 39 31 29 30 32 32 36 31
6 6 10 10 6 11 15 29 25 34 33 63 76 78 81 79 78 75 72 76 76 72 71 70 67 62 58 53 59 58 61 61 62 59 59 54 51 48 48 47 43 38 37 36 35 33 35 33 30
10 12 10 14 6 8 10 17 15 21 39 63 78 85 84 88 89 88 83 82 81 80 77 74 71 65 60 59 60 61 63 63 64 65 62 59 52 50 48 45 42 41 38 39 37 31 23 24 28
13 17 9 6 4 9 3 15 13 13 20 17 63 73 87 91 91 89 84 84 87 86 81 76 71 65 64 59 57 59 71 73 74 66 66 58 49 53 50 47 46 47 46 39 34 32 27 23 24
12 11 13 7 7 8 9 3 13 1 14 27 43 76 82 77 75 75 76 75 77 87 84 79 73 67 65 58 57 65 73 74 70 71 68 62 57 56 51 51 54 52 46 41 36 35 32 27 23
12 10 10 8 5 10 18 18 10 12 17 11 31 69 64 54 49 49 51 53 60 72 83 80 75 73 64 58 58 72 72 75 80 75 72 68 61 60 58 59 56 51 47 43 39 33 28 24 21
6 11 5 7 2 18 11 6 24 16 13 17 24 50 35 20 18 22 31 41 51 61 79 84 80 74 65 61 61 71 71 75 74 76 75 72 68 68 68 64 59 54 48 42 35 30 25 20 15
19 16 12 14 8 11 6 15 12 17 34 47 52 57 50 34 31 31 28 32 44 52 71 86 83 76 68 65 66 71 77 83 79 81 77 72 66 72 72 67 60 54 47 41 36 30 25 21 18
12 14 9 6 4 4 11 16 16 16 22 31 41 33 35 26 23 22 25 31 38 48 65 81 80 74 69 68 68 71 70 78 82 82 79 75 71 79 77 70 63 55 48 42 36 30 27 24 18
11 13 6 3 6 9 12 13 16 11 19 21 23 28 36 26 19 18 20 24 30 41 56 70 76 74 68 71 73 75 80 83 81 80 81 80 83 86 81 74 65 58 51 44 37 31 27 22 18
7 9 2 8 10 10 5 17 15 20 19 16 11 10 7 8 11 13 8 15 22 32 49 66 75 72 69 74 74 76 78 79 80 81 85 85 87 87 81 74 67 61 54 45 37 31 27 23 19
5 11 16 9 9 8 5 33 7 10 9 14 9 3 4 14 14 2 5 14 22 31 45 62 71 71 68 74 76 74 77 79 82 85 86 88 90 87 82 75 67 60 51 44 36 30 26 22 18
Wind_Direction_850mb
247 235 214 198 59 66 289 261 211 139 191 194 136 156 162 84 148 196 148 149 154 167 162 161 163 153 148 138 131 129 110 90 74 63 63 67 65 61 65 73 79 80 79 78 80 82 73 72 66
214 194 164 92 89 81 266 252 206 190 135 114 101 100 71 81 121 142 156 154 159 169 169 168 165 160 155 144 137 132 123 99 77 67 70 64 62 62 63 71 76 75 76 76 79 79 77 73 64
175 169 101 90 110 166 195 211 187 139 141 119 114 93 115 135 138 150 164 174 169 171 173 172 171 169 164 155 150 144 140 112 84 77 71 70 69 67 67 68 70 74 75 78 78 83 83 81 73
154 129 62 82 176 233 210 185 162 145 214 146 133 82 129 159 165 164 164 166 163 169 176 175 177 177 173 167 163 156 152 139 114 101 81 79 72 63 58 60 68 71 75 75 81 82 82 86 77
147 89 58 75 287 265 245 178 161 164 150 151 160 176 160 167 175 166 163 165 166 172 181 182 182 181 181 175 176 170 162 151 140 114 95 88 70 61 59 60 64 71 73 79 80 80 83 85 84
99 85 65 180 269 295 217 174 159 185 169 164 152 150 159 174 165 161 164 163 168 179 186 187 187 190 188 186 178 178 168 161 161 148 127 102 76 65 62 61 63 71 81 81 82 89 93 94 91
123 85 173 167 210 305 195 166 176 181 174 203 166 139 190 178 169 166 168 168 172 178 193 193 193 199 200 190 183 185 184 173 169 169 144 109 81 74 66 64 68 71 71 74 79 84 89 92 93
120 93 115 201 193 234 187 169 206 180 186 172 173 198 206 188 179 177 178 182 180 189 192 193 193 201 203 206 200 196 196 189 182 177 173 159 73 73 68 60 68 69 76 79 82 84 86 89 90
115 69 180 203 153 237 171 153 173 190 162 178 199 215 216 192 190 188 187 190 190 191 198 203 201 203 211 208 212 215 212 206 198 188 192 166 96 68 57 72 67 67 74 79 81 83 87 88 90
86 117 207 190 196 218 191 182 169 170 181 213 223 223 219 196 199 199 198 198 199 200 202 205 207 206 209 204 219 222 225 225 221 228 198 227 228 216 187 145 66 73 76 84 88 85 82 85 86
126 179 187 205 218 221 191 202 180 166 223 218 221 219 212 199 203 207 208 212 214 215 219 217 213 212 216 213 210 220 225 223 227 226 234 230 231 219 214 223 207 109 112 106 100 88 81 81 78
101 126 176 183 203 169 183 176 201 212 226 245 237 236 217 206 208 212 213 214 216 222 228 237 215 223 218 220 215 218 224 224 228 236 230 231 230 223 223 218 225 206 196 176 146 125 90 79 78
103 204 221 263 229 229 238 235 229 246 240 249 246 226 221 215 216 217 219 222 226 228 231 234 233 231 231 223 223 222 224 223 227 230 234 239 231 240 224 227 224 202 241 204 193 172 154 125 117
121 188 271 261 241 241 226 269 232 249 239 239 242 234 223 223 223 220 221 225 229 232 234 235 234 233 233 230 227 227 223 227 225 224 236 239 236 235 226 239 218 218 248 211 201 202 188 163 126
85 331 327 241 224 239 220 296 237 246 249 240 236 232 227 227 225 229 233 234 236 238 237 237 235 234 233 233 234 234 228 227 227 229 231 233 238 236 227 228 230 226 244 210 215 212 203 149 134
56 47 8 288 152 255 150 265 268 258 239 243 238 232 231 232 232 233 234 234 236 240 240 240 238 234 232 233 234 232 231 225 225 231 231 231 232 229 238 226 205 237 237 218 211 209 178 166 152
7 226 210 316 199 125 173 267 242 257 225 243 245 242 239 240 239 238 235 237 239 241 240 236 233 231 231 230 229 228 229 226 226 227 228 233 228 226 242 213 238 241 220 213 209 201 188 170 157
197 212 240 234 209 175 226 263 267 259 249 252 256 253 249 247 247 244 243 240 238 238 236 233 233 233 232 230 225 224 216 218 225 228 224 228 223 229 201 217 240 223 208 204 194 192 174 169 160
138 187 214 238 240 195 232 254 266 268 259 262 260 254 252 251 255 247 243 243 241 237 236 235 235 236 235 227 224 217 213 215 221 216 226 206 219 220 210 230 236 219 203 190 189 182 176 162 160
158 212 255 278 238 189 274 262 250 256 244 251 258 257 255 254 252 249 242 239 240 240 238 235 236 236 238 231 229 224 214 214 221 223 219 224 227 208 229 232 220 203 193 191 183 185 174 168 170
213 198 215 226 325 237 312 272 230 258 250 252 253 258 259 256 254 252 245 241 239 238 237 234 235 236 236 233 225 218 215 216 218 217 216 213 218 229 223 211 202 194 188 183 177 179 193 194 190
247 202 186 185 60 254 170 284 221 239 247 236 255 254 255 256 256 256 254 245 242 240 236 234 235 235 235 233 224 220 216 216 213 215 211 208 219 213 203 199 196 190 185 186 182 183 191 194 195
232 130 160 154 171 342 217 227 260 223 256 254 254 257 259 261 263 263 262 258 248 239 235 232 232 232 235 229 221 215 219 215 219 211 209 204 208 204 200 194 189 187 184 186 189 188 187 184 193
142 83 61 59 108 272 200 195 212 194 211 241 251 261 270 273 269 267 266 257 248 238 232 230 229 232 230 226 220 214 216 218 213 206 204 199 200 201 192 187 187 187 189 191 189 186 184 187 186
148 108 302 322 14 243 341 247 258 277 247 222 250 265 274 283 288 275 264 254 245 234 226 224 225 228 225 222 216 215 216 216 217 220 208 202 199 196 190 188 188 191 192 191 189 189 188 186 187
197 164 173 213 212 275 347 244 247 238 261 248 253 261 270 279 292 283 275 258 247 236 225 223 223 225 223 220 216 219 219 219 219 215 208 206 209 202 193 190 191 193 193 192 191 189 188 187 189
198 206 196 67 83 1 229 281 289 269 282 269 247 260 270 276 276 276 270 262 251 239 229 225 223 225 221 220 217 217 218 217 217 215 209 203 210 201 195 193 194 194 194 194 193 192 192 189 188
167 170 80 352 200 257 269 269 228 259 248 259 269 260 263 270 268 274 270 269 258 244 233 225 227 231 223 217 217 219 223 224 223 215 214 210 205 200 197 195 195 196 195 195 193 191 190 190 193
145 204 122 136 159 186 290 264 218 226 231 231 265 270 240 232 227 242 260 271 256 243 232 225 227 232 223 218 218 220 222 221 220 220 217 211 205 200 200 199 198 197 197 195 194 192 194 194 195
318 222 169 152 213 241 169 266 158 239 301 211 233 192 201 154 178 157 305 276 261 247 232 226 228 233 225 220 219 225 225 225 223 219 216 210 206 203 203 201 199 199 198 197 195 197 198 200 204